DW1354 Weather Reports


Display with metric or nautical units.
time (UTC)temp
F
wind
direction
speed
MPH
gust
MPH
rain 1hr
in
rain 24hr
in
rain mn
in
humidity
%
barometer
mb
20190820003520 84 0.0 0.0 0.00 0.00 0.00 68 1015.3
20190820002520 84 0.0 0.0 0.00 0.00 0.00 67 1014.9
20190820001520 85 0.0 0.0 0.00 0.00 0.00 69 1014.8
20190820000518 85 0.0 0.0 0.00 0.00 0.00 69 1014.7
20190819235520 86 0.0 0.0 0.00 0.00 0.00 69 1014.5
20190819234515 86 0.0 0.0 0.00 0.00 0.00 69 1014.7
20190819233520 87 0.0 0.0 0.00 0.00 0.00 69 1014.6
20190819232520 87 0.0 0.0 0.00 0.00 0.00 69 1014.4
20190819231520 87 0.0 0.0 0.00 0.00 0.00 68 1014.3
20190819230520 87 0.0 0.0 0.00 0.00 0.00 67 1014.2
20190819225520 88 0.0 0.0 0.00 0.00 0.00 68 1014.0
20190819224520 88 0.0 0.0 0.00 0.00 0.00 68 1014.1
20190819223515 88 0.0 0.0 0.00 0.00 0.00 68 1014.1
20190819222520 88 0.0 0.0 0.00 0.00 0.00 67 1014.1
20190819221520 88 0.0 0.0 0.00 0.00 0.00 66 1014.1
20190819220520 89 0.0 0.0 0.00 0.00 0.00 65 1014.1
20190819215520 89 0.0 0.0 0.00 0.00 0.00 64 1014.0
20190819214520 89 0.0 0.0 0.00 0.00 0.00 63 1014.3
20190819213520 90 0.0 0.0 0.00 0.00 0.00 62 1014.4
20190819212515 90 0.0 0.0 0.00 0.00 0.00 62 1014.5
20190819211520 90 0.0 0.0 0.00 0.00 0.00 61 1014.7
20190819210520 90 0.0 0.0 0.00 0.00 0.00 60 1014.7
20190819205520 91 0.0 0.0 0.00 0.00 0.00 58 1014.6
20190819204520 91 0.0 0.0 0.00 0.00 0.00 57 1014.5
20190819203520 91 0.0 0.0 0.00 0.00 0.00 57 1014.3
20190819202515 91 0.0 0.0 0.00 0.00 0.00 57 1014.4
20190819201520 91 0.0 0.0 0.00 0.00 0.00 56 1014.5
20190819200520 91 0.0 0.0 0.00 0.00 0.00 56 1014.5
20190819195520 91 0.0 0.0 0.00 0.00 0.00 56 1014.7
20190819194520 91 0.0 0.0 0.00 0.00 0.00 59 1014.9
20190819193520 91 0.0 0.0 0.00 0.00 0.00 57 1014.9
20190819192520 92 0.0 0.0 0.00 0.00 0.00 57 1015.0
20190819191515 92 0.0 0.0 0.00 0.00 0.00 56 1015.0
20190819190520 92 0.0 0.0 0.00 0.00 0.00 54 1015.2
20190819185520 93 0.0 0.0 0.00 0.00 0.00 55 1015.2
20190819184520 93 0.0 0.0 0.00 0.00 0.00 54 1015.2
20190819183520 93 0.0 0.0 0.00 0.00 0.00 53 1015.3
20190819182520 93 0.0 0.0 0.00 0.00 0.00 53 1015.5
20190819181520 93 0.0 0.0 0.00 0.00 0.00 54 1015.6
20190819180515 94 0.0 0.0 0.00 0.00 0.00 53 1015.6
20190819175520 94 0.0 0.0 0.00 0.00 0.00 54 1015.8
20190819174520 94 0.0 0.0 0.00 0.00 0.00 52 1015.8
20190819173520 94 0.0 0.0 0.00 0.00 0.00 53 1015.8
20190819172520 94 0.0 0.0 0.00 0.00 0.00 53 1015.7
20190819171520 94 0.0 0.0 0.00 0.00 0.00 52 1015.9
20190819170515 95 0.0 0.0 0.00 0.00 0.00 51 1016.0
20190819165515 95 0.0 0.0 0.00 0.00 0.00 52 1016.0
20190819164520 94 0.0 0.0 0.00 0.00 0.00 54 1016.1
20190819163520 94 0.0 0.0 0.00 0.00 0.00 54 1016.0
20190819162520 93 0.0 0.0 0.00 0.00 0.00 55 1016.1
20190819161520 93 0.0 0.0 0.00 0.00 0.00 54 1016.3
20190819160517 93 0.0 0.0 0.00 0.00 0.00 55 1016.2
20190819155522 92 0.0 0.0 0.00 0.00 0.00 57 1016.1
20190819154522 91 0.0 0.0 0.00 0.00 0.00 58 1016.1
20190819153522 90 0.0 0.0 0.00 0.00 0.00 58 1016.0
20190819152522 89 0.0 0.0 0.00 0.00 0.00 59 1016.0
20190819151522 89 0.0 0.0 0.00 0.00 0.00 58 1016.0
20190819150522 89 0.0 0.0 0.00 0.00 0.00 60 1016.0
20190819145517 88 0.0 0.0 0.00 0.00 0.00 59 1015.9
20190819144522 88 0.0 0.0 0.00 0.00 0.00 60 1015.9
20190819143522 88 0.0 0.0 0.00 0.00 0.00 62 1016.0
20190819142520 87 0.0 0.0 0.00 0.00 0.00 63 1016.1
20190819141522 87 0.0 0.0 0.00 0.00 0.00 62 1016.1
20190819140520 86 0.0 0.0 0.00 0.00 0.00 64 1016.2
20190819135517 84 0.0 0.0 0.00 0.00 0.00 65 1016.1
20190819134520 83 0.0 0.0 0.00 0.00 0.00 67 1016.0
20190819133522 82 0.0 0.0 0.00 0.00 0.00 70 1015.9
20190819132520 81 0.0 0.0 0.00 0.00 0.00 75 1016.0
20190819131522 79 0.0 0.0 0.00 0.00 0.00 78 1015.8
20190819130520 77 0.0 0.0 0.00 0.00 0.00 81 1015.9
20190819125521 76 0.0 0.0 0.00 0.00 0.00 83 1015.7
20190819124516 75 0.0 0.0 0.00 0.00 0.00 86 1015.6
20190819123522 73 0.0 0.0 0.00 0.00 0.00 87 1015.7
20190819122522 73 0.0 0.0 0.00 0.00 0.00 87 1015.9
20190819121522 73 0.0 0.0 0.00 0.00 0.00 87 1015.8
20190819120522 73 0.0 0.0 0.00 0.00 0.00 88 1015.7
20190819115520 73 0.0 0.0 0.00 0.00 0.00 91 1015.8
20190819114521 72 0.0 0.0 0.00 0.00 0.00 92 1015.2
20190819113517 72 0.0 0.0 0.00 0.00 0.00 93 1015.6
20190819112522 72 0.0 0.0 0.00 0.00 0.00 93 1015.1
20190819111522 72 0.0 0.0 0.00 0.00 0.00 92 1015.1
20190819110521 72 0.0 0.0 0.00 0.00 0.00 92 1015.2
20190819105522 72 0.0 0.0 0.00 0.00 0.00 92 1015.0
20190819104522 72 0.0 0.0 0.00 0.00 0.00 92 1015.0
20190819103517 72 0.0 0.0 0.00 0.00 0.00 91 1014.9
20190819102516 72 0.0 0.0 0.00 0.00 0.00 91 1014.9
20190819101521 72 0.0 0.0 0.00 0.00 0.00 91 1014.8
20190819100521 72 0.0 0.0 0.00 0.00 0.00 91 1014.5
20190819095522 73 0.0 0.0 0.00 0.00 0.00 90 1014.5
20190819094522 73 0.0 0.0 0.00 0.00 0.00 90 1014.7
20190819093522 74 0.0 0.0 0.00 0.00 0.00 91 1014.7
20190819092516 74 0.0 0.0 0.00 0.00 0.00 91 1014.6
20190819091521 74 0.0 0.0 0.00 0.00 0.00 91 1014.7
20190819090521 75 0.0 0.0 0.00 0.00 0.00 91 1014.6
20190819085522 75 0.0 0.0 0.00 0.00 0.00 91 1014.6
20190819084522 75 0.0 0.0 0.00 0.00 0.00 91 1014.5
20190819083521 75 0.0 0.0 0.00 0.00 0.00 91 1014.6
20190819082521 75 0.0 0.0 0.00 0.00 0.00 90 1014.5
20190819081517 75 0.0 0.0 0.00 0.00 0.00 90 1014.5
20190819080522 75 0.0 0.0 0.00 0.00 0.00 89 1014.3
20190819075522 75 0.0 0.0 0.00 0.00 0.00 88 1014.3
20190819074521 75 0.0 0.0 0.00 0.00 0.00 87 1014.3
20190819073522 74 0.0 0.0 0.00 0.00 0.00 86 1014.4
20190819072522 74 0.0 0.0 0.00 0.00 0.00 85 1014.4
20190819071517 74 0.0 0.0 0.00 0.00 0.00 84 1014.5
20190819070517 74 0.0 0.0 0.00 0.00 0.00 84 1014.5
20190819065522 74 0.0 0.0 0.00 0.00 0.00 83 1014.5
20190819064521 74 0.0 0.0 0.00 0.00 0.00 83 1014.4
20190819063521 74 0.0 0.0 0.00 0.00 0.00 82 1014.4
20190819062522 74 0.0 0.0 0.00 0.00 0.00 83 1014.5
20190819061523 74 0.0 0.0 0.00 0.00 0.00 82 1014.5
20190819060517 74 0.0 0.0 0.00 0.00 0.00 83 1014.7
20190819055521 74 0.0 0.0 0.00 0.00 0.00 83 1014.7
20190819054521 75 0.0 0.0 0.00 0.00 0.00 82 1014.8
20190819053521 75 0.0 0.0 0.00 0.00 0.00 81 1014.9
20190819052521 75 0.0 0.0 0.00 0.00 0.00 81 1015.0
20190819051520 75 0.0 0.0 0.00 0.00 0.00 80 1015.2
20190819050521 75 0.0 0.0 0.00 0.00 0.00 80 1015.2
20190819045516 75 0.0 0.0 0.00 0.00 0.00 80 1015.4
20190819044521 75 0.0 0.0 0.00 0.00 0.00 79 1015.2
20190819043521 75 0.0 0.0 0.00 0.00 0.00 79 1015.1
20190819042521 75 0.0 0.0 0.00 0.00 0.00 79 1015.0
20190819041521 75 0.0 0.0 0.00 0.00 0.00 79 1015.2
20190819040521 75 0.0 0.0 0.00 0.00 0.00 78 1015.4
20190819035521 75 0.0 0.0 0.00 0.00 0.00 78 1015.0
20190819034516 75 0.0 0.0 0.00 0.00 0.00 78 1014.9
20190819033522 76 0.0 0.0 0.00 0.00 0.00 77 1014.8
20190819032521 76 0.0 0.0 0.00 0.00 0.00 77 1014.8
20190819031521 76 0.0 0.0 0.00 0.00 0.00 77 1015.0
20190819030522 77 0.0 0.0 0.00 0.00 0.00 76 1015.3
20190819025521 77 0.0 0.0 0.00 0.00 0.00 76 1015.3
20190819024516 77 0.0 0.0 0.00 0.00 0.00 76 1015.2
20190819023516 77 0.0 0.0 0.00 0.00 0.00 76 1015.3
20190819022521 78 0.0 0.0 0.00 0.00 0.00 76 1015.2
20190819021521 78 0.0 0.0 0.00 0.00 0.00 76 1014.8
20190819020521 79 0.0 0.0 0.00 0.00 0.00 74 1014.8
20190819015521 80 0.0 0.0 0.00 0.00 0.00 72 1014.8
20190819014521 80 0.0 0.0 0.00 0.00 0.00 70 1015.2
20190819013516 81 0.0 0.0 0.00 0.00 0.00 70 1014.9
20190819012521 81 0.0 0.0 0.00 0.00 0.00 69 1014.6
20190819011521 81 0.0 0.0 0.00 0.00 0.00 68 1014.9
20190819010521 81 0.0 0.0 0.00 0.00 0.00 66 1015.1
20190819005521 82 0.0 0.0 0.00 0.00 0.00 66 1015.1
20190819004521 82 0.0 0.0 0.00 0.00 0.00 65 1015.1